Regional Weather Roundup
Issued by NWS Cleveland, OH

Home | Current Version | Previous Version | Graphics & Text | Print | Product List | Glossary On
Versions: 1 2 3 4 5 6 7 8 9 10 11 12 13 14 15 16 17 18 19 20 21 22 23 24 25 26 27 28 29 30 31 32 33 34 35 36 37 38 39 40 41 42 43 44 45 46 47 48 49 50
555
ASUS41 KCLE 240712
RWRCLE
OHIO REGIONAL WEATHER ROUNDUP
NATIONAL WEATHER SERVICE WILMINGTON, OH
200 AM EST FRI NOV 24 2017

NOTE: "FAIR" INDICATES FEW OR NO CLOUDS BELOW 12,000 FEET WITH NO
SIGNIFICANT WEATHER AND/OR OBSTRUCTIONS TO VISIBILITY.

OHZ001>008-015>018-024>027-034-035-043-044-240800-
   NORTHWEST OHIO

CITY           SKY/WX    TMP DP  RH WIND       PRES   REMARKS
DEFIANCE       FAIR      31  24  75 S8        29.93F WCI  23
FINDLAY        FAIR      32  24  72 S9        29.94F WCI  24
TOLEDO EXPRESS FAIR      34  27  75 SW7       29.93F WCI  28
TOLEDO EXEC    FAIR      32  25  75 S8        29.95F WCI  25
LIMA           FAIR      33  25  72 S12       29.95F WCI  24
$$

OHZ009>014-019>023-028>033-038-089-240800-
   NORTHEAST OHIO

CITY           SKY/WX    TMP DP  RH WIND       PRES   REMARKS
CLE-HOPKINS    FAIR      34  25  69 S9        29.99F WCI  27
CLE-LAKEFRONT  FAIR      36  24  62 S9        29.96F
CUY CO. ARPT   NOT AVBL
LORAIN-ELYRIA  FAIR      30  21  69 S6        29.97F WCI  24
ASHTABULA      FAIR      32  24  72 S7        29.96F WCI  26
AKRON-CANTON   FAIR      29  20  69 S7        29.98F WCI  22
WOOSTER        FAIR      29  23  78 S6        29.98F WCI  23
MANSFIELD      FAIR      29  23  78 S7        29.96F WCI  22
YOUNGSTOWN     FAIR      31  22  69 S5        29.98F WCI  26
$$

OHZ042-051>053-060>062-070>072-077>081-240800-
  SOUTHWEST OHIO

CITY           SKY/WX    TMP DP  RH WIND       PRES   REMARKS
CINC-COVINGTON FAIR      29  27  92 S5        30.00S WCI  24
CINC-LUNKEN    FAIR      27  26  96 CALM      30.04S
HAMILTON       FAIR      26  24  92 CALM      30.02F
DAYTON         FAIR      34  25  69 S8        29.99F WCI  27
WRIGHT-PAT AFB FAIR      27  23  83 CALM      30.00F
DAYTON GENERAL FAIR      32  23  69 S5        29.99F WCI  27
WILMINGTON     FAIR      30  24  78 S3        30.00S
$$

OHZ036-037-039>041-045>050-054>059-063>069-073>076-082>088-240800-
  CENTRAL AND SOUTHEAST OHIO

CITY           SKY/WX    TMP DP  RH WIND       PRES   REMARKS
COLUMBUS       FAIR      30  25  81 CALM      30.01F
OSU AIRPORT    FAIR      31  25  78 S6        30.00F WCI  25
BOLTON FIELD   FAIR      26  23  89 CALM      30.01F
RICKENBACK AFB FAIR      27  24  89 CALM      30.01F
NEWARK         FAIR      25  21  85 CALM      30.01F
MARION         FAIR      29  23  78 S8        29.98F WCI  21
LANCASTER      FAIR      25  22  88 S5        30.02S WCI  19
ZANESVILLE     FAIR      25  21  85 CALM      30.02F
NEW PHILLY     FAIR      26  23  88 SE5       30.02F WCI  20
$$




USA.gov is the U.S. government's official web portal to all federal, state and local government web resources and services.